STARLINK-3771, 52293

Orbit data source: Space-Track

STARLINK-3771, 52293 is a payload satellite owned by SpaceX/Seattle (US) in LEO that was launched on Thu, 21 Apr 2022 UTC via an FALCON 9 launch vehicle from the Air Force Eastern Test Range (AFETR). Payload-class satellites include a variety of spacecraft equipped with specific instruments for various scientific and technological missions. These include communications satellites like Starlink; space stations such as the ISS; scientific satellites like the Hubble; Earth observation satellites from companies like Planet Labs, Umbra, and HawkEye 360; GPS; miniature CubeSats for education and research; and military/defense satellites.

Loading next visibility...
Identifier
52293, 2022-041AJ
Orbit
LEO
Country
Flag of USUS
Related business
Manufacturer
SpaceX/Seattle
Mission
Operational Commercial Communications
Bus & Motor
STARLINK, Unknown motor
Mass
297 kg wet, ~275 kg dry
Launch date (UTC)
2022-04-21 (4 years ago)
Launch vehicle
FALCON 9
Launch site
Air Force Eastern Test Range (AFETR)
Object type
Payload
Rocket body
Debris
Shape & HBR
Box + 1 Pan, 10.1 m
Radar Cross Section
11.087 m², Large (>1 m²)

Expand to show TLE details & history
Last TLE update: 1 day ago

TLE from 1 day ago
0 STARLINK-3771
1 52293U 22041AJ  26174.87823885  .00000967  00000-0  78843-4 0  9995
2 52293  53.1600 342.2933 0001454  92.4245 267.6913 15.08834707230534
Epoch: 2026-06-23T21:04Z
TLE epoch observation values (Epoch: 2026-06-23T21:04:39.836Z)
Latitude
-0.00002°
Longitude
114.08381°
Altitude
540.692 km
Speed
7.593 km/s
True Right ascension
22h 49m 10s
True Declination
0° 00' 00"
Sunlit
Object was in daylight at epoch
Visualization orbit readout
Latitude
Unknown
Longitude
Unknown
Altitude
Unknown
Speed
Unknown
Apparent Right ascension
Unknown
Apparent Declination
Unknown
Sunlit
N/A
Visualization observer readout
Local Sidereal Time
08:52:16
Azimuth
Unknown
Elevation
Unknown
Doppler factor
Unknown
Orbital elements
Apogee altitude
541.02 km
Perigee altitude
539.008 km
Semi-major axis
6,918.151 km
Eccentricity
0.00015
Inclination
53.16°
RAAN
342.2933°
Arg. of periapsis
92.4245°
True anomaly
267.67465°
Mean anomaly
267.6913°
Eccentric anomaly
267.68298°
Mean motion
3.77188 °/min
Orbital period
95.44 mins
BSTAR
0.000078843
Loading maneuver chart data...
Computing Atmospheric mass density...
Loading historical data...
Loading historical data...
Loading historical data...
Loading historical data...
Loading historical data...
Loading historical data...
Loading historical data...

Documentation

Showing up to 5 results
|